This is the latest recevied weather packets stored in our database for station/object WB4MOZ-3. If no packets are shown the sender has not sent any weather packets the latest 10 day(s).
| Time | Temp. | Humidity | Pressure | Rain* | Wind** | Luminosity | Snow |
|---|---|---|---|---|---|---|---|
| 1777995167 | 28.33° C | 69% | 1013.9 hPa | 0 mm | - | - | - |
| 1777994867 | 29.44° C | 67% | 1013.9 hPa | 0 mm | - | - | - |
| 1777994568 | 28.89° C | 67% | 1014 hPa | 0 mm | - | - | - |
| 1777994268 | 29.44° C | 67% | 1013.8 hPa | 0 mm | - | - | - |
| 1777993967 | 29.44° C | 65% | 1014 hPa | 0 mm | - | - | - |
| 1777993667 | 30° C | 66% | 1014 hPa | 0 mm | - | - | - |
| 1777993367 | 29.44° C | 65% | 1014 hPa | 0 mm | - | - | - |
| 1777993067 | 29.44° C | 64% | 1014.2 hPa | 0 mm | - | - | - |
| 1777992767 | 30° C | 64% | 1014.1 hPa | 0 mm | - | - | - |
| 1777992467 | 30° C | 65% | 1014 hPa | 0 mm | - | - | - |
| 1777992167 | 29.44° C | 69% | 1014 hPa | 0 mm | - | - | - |
| 1777991867 | 28.89° C | 74% | 1014 hPa | 0 mm | - | - | - |
| 1777991567 | 27.78° C | 74% | 1014.1 hPa | 0 mm | - | - | - |
| 1777990967 | 27.78° C | 75% | 1014 hPa | 0 mm | - | - | - |
| 1777990667 | 27.78° C | 77% | 1013.9 hPa | 0 mm | - | - | - |
| 1777990368 | 27.22° C | 77% | 1013.8 hPa | 0 mm | - | - | - |
| 1777990067 | 27.78° C | 75% | 1013.9 hPa | 0 mm | - | - | - |
| 1777989767 | 27.78° C | 76% | 1014 hPa | 0 mm | - | - | - |
| 1777989467 | 27.22° C | 77% | 1013.9 hPa | 0 mm | - | - | - |
| 1777989167 | 27.22° C | 80% | 1013.9 hPa | 0 mm | - | - | - |
| 1777988867 | 26.67° C | 80% | 1013.8 hPa | 0 mm | - | - | - |
| 1777988567 | 27.22° C | 82% | 1013.9 hPa | 0 mm | - | - | - |
| 1777988267 | 27.22° C | 78% | 1014.1 hPa | 0 mm | - | - | - |
| 1777987967 | 27.78° C | 78% | 1014.1 hPa | 0 mm | - | - | - |
| 1777987667 | 27.22° C | 79% | 1014.1 hPa | 0 mm | - | - | - |
* Rain latest hour (hover to see other rain measurements)
** Current wind speed in m/s (hover to see current wind gust speed)